Wind_Speed
31 30 31 32 34 36 38 39 40 42 43 45 46 45 45 47 49 48 47 46 46 47 47 45 43 42 43 42 42 40 39 39 39 38 38 39 39 39 40 40 40 41 42
31 30 29 31 34 34 35 37 39 41 42 43 44 43 43 46 48 48 46 45 45 46 46 46 44 42 42 41 40 39 38 39 39 38 38 39 39 39 38 39 40 40 42
30 31 31 31 32 33 34 36 38 39 40 41 41 42 42 45 47 47 45 44 45 46 45 45 44 42 41 40 39 38 38 39 39 39 38 38 39 38 37 38 39 40 42
28 30 31 30 31 33 34 34 35 36 36 38 40 41 41 43 46 45 43 43 42 43 44 44 43 42 40 39 38 38 38 39 39 38 37 38 38 37 37 37 39 39 40
26 27 28 29 30 32 33 32 33 34 35 36 38 39 41 42 43 43 42 42 42 42 42 42 42 42 40 39 39 38 38 37 37 37 37 37 36 35 36 37 38 38 39
25 26 26 27 29 30 31 31 32 33 34 35 36 38 40 41 43 43 42 41 42 42 42 42 41 40 40 41 40 38 38 38 37 37 38 37 35 36 36 37 37 37 37
26 26 26 27 28 29 30 29 30 31 32 35 39 37 38 40 41 41 41 39 41 41 43 42 41 39 40 40 38 37 36 36 36 37 36 35 35 35 36 36 35 36 36
25 24 25 26 27 28 28 29 30 30 31 34 37 36 37 38 38 40 40 39 40 40 41 42 40 39 39 39 38 37 36 37 36 36 36 35 35 34 34 34 34 35 36
25 24 24 25 26 26 26 27 28 29 30 32 35 36 37 36 37 38 38 38 38 39 40 40 39 38 38 38 37 36 36 35 34 35 36 36 34 34 34 34 34 34 35
25 24 24 24 24 24 25 25 26 27 28 30 33 35 35 35 35 36 37 36 36 36 39 40 40 38 37 37 37 36 35 34 34 35 34 34 34 34 33 33 33 33 34
25 24 23 23 23 24 24 24 25 26 27 28 30 33 34 33 34 35 36 36 36 36 37 39 39 38 37 36 35 35 34 33 33 32 32 32 33 33 32 31 32 32 33
24 23 23 23 23 24 24 24 25 25 26 28 29 31 33 33 33 34 35 36 36 35 35 37 38 37 35 34 34 34 33 32 32 31 30 30 30 30 30 30 30 30 31
24 22 22 23 23 23 24 24 24 25 25 27 29 31 32 32 33 34 33 33 35 36 35 35 35 34 34 34 33 32 32 32 31 30 29 29 29 29 29 29 30 30 31
25 24 24 23 23 23 24 25 25 25 25 26 27 29 31 30 32 34 34 33 33 33 33 33 34 35 35 34 33 32 32 31 30 29 29 28 28 28 28 29 29 29 30
26 25 25 24 24 24 25 26 26 27 27 26 27 28 30 30 31 32 32 32 32 32 32 33 34 34 35 34 33 33 32 30 29 28 28 27 27 27 28 29 29 29 30
26 25 25 25 25 25 25 26 26 27 27 27 27 27 28 28 28 29 30 30 31 32 31 31 31 32 32 32 32 32 31 31 30 29 28 26 26 27 28 29 28 28 30
26 25 25 26 26 26 26 26 26 25 26 26 27 27 27 27 27 28 28 29 30 30 30 30 30 29 30 30 31 31 30 30 29 29 28 28 28 28 28 28 27 27 29
26 26 26 26 26 26 26 26 26 25 25 25 26 27 27 26 27 28 28 28 29 30 29 29 28 28 29 29 29 29 28 28 27 27 27 27 27 27 27 27 26 26 27
27 27 26 26 26 25 25 25 25 24 24 24 26 27 27 26 26 27 28 28 28 29 29 29 29 28 28 28 28 27 27 26 25 25 25 25 25 24 23 23 23 23 23
27 27 27 27 26 26 26 25 25 24 24 24 25 27 28 27 27 27 27 28 29 29 29 28 28 28 27 27 26 26 26 25 24 23 23 23 22 21 21 21 21 20 20
27 27 28 27 27 26 26 26 25 25 24 24 25 26 27 27 27 26 27 28 28 28 28 28 27 27 27 26 25 25 25 24 23 22 22 22 21 20 20 20 19 18 19
27 27 27 27 27 27 26 26 26 25 25 25 25 25 26 27 27 27 27 27 28 28 28 28 28 27 25 25 24 24 23 22 21 21 21 20 19 18 18 18 17 17 17
27 27 26 27 27 27 26 26 26 25 24 24 25 25 24 25 26 26 27 27 28 28 28 28 27 27 25 24 24 23 23 22 20 19 20 19 17 17 17 16 16 16 16
27 26 26 27 27 27 27 26 26 25 24 23 24 24 24 24 24 24 25 27 27 28 28 27 26 25 24 23 23 22 21 21 20 19 19 18 17 16 16 15 15 15 15
26 26 25 25 26 26 26 25 25 25 24 23 23 23 23 23 23 23 24 25 26 27 27 26 26 24 23 23 22 21 20 20 19 18 17 16 16 15 14 14 13 13 14
25 25 24 24 24 25 25 24 24 24 24 23 22 22 23 23 23 23 23 23 24 25 25 25 25 24 23 22 22 20 19 18 17 18 17 15 13 13 13 12 12 12 12
Wind_Direction
258 254 254 251 249 247 247 245 243 241 239 238 236 237 233 231 231 231 232 236 238 241 241 242 244 246 249 251 254 256 259 265 269 271 275 279 283 285 288 292 295 298 301
258 256 255 253 249 246 246 244 241 240 239 238 237 235 232 231 231 231 233 236 238 240 241 242 244 245 247 251 254 256 260 264 268 272 276 279 282 285 288 292 295 299 301
259 257 256 254 249 246 246 244 240 239 239 237 235 232 231 231 231 232 235 235 238 240 241 242 243 244 246 250 254 257 259 263 268 272 275 279 283 285 288 291 295 299 302
262 261 257 254 250 247 246 245 242 239 238 237 236 232 232 232 231 234 235 236 238 240 240 240 242 244 248 251 254 256 259 264 268 272 276 280 283 286 289 292 296 299 302
265 263 257 255 251 246 244 243 241 240 239 239 236 233 231 231 232 233 234 237 238 239 240 241 243 245 248 250 254 256 259 264 269 272 276 279 282 286 289 292 295 298 301
269 267 261 257 252 248 246 246 245 244 243 241 236 233 231 231 231 233 233 234 236 238 240 242 242 244 248 252 254 257 260 265 269 272 275 277 281 285 288 291 295 298 301
270 266 260 259 256 249 248 247 245 244 244 241 237 235 232 231 232 234 235 234 236 239 240 239 241 246 248 250 254 257 260 265 269 272 274 277 281 285 288 291 294 297 299
269 266 262 260 258 253 248 248 248 247 246 241 237 236 233 232 233 234 234 234 236 239 239 237 241 246 248 251 254 256 260 265 268 270 273 276 279 284 288 292 294 296 299
270 268 265 261 257 253 250 248 245 246 245 241 236 235 236 235 235 236 235 235 237 237 236 237 242 246 249 252 253 256 261 265 267 270 273 276 279 283 288 291 293 296 299
269 267 264 260 256 252 250 249 247 247 246 242 238 236 236 237 236 236 236 235 237 237 237 238 241 245 249 251 253 258 261 265 268 270 273 277 279 283 286 289 291 295 298
268 265 263 260 258 254 251 249 247 247 246 244 240 236 236 236 235 236 236 238 239 240 240 239 240 244 247 251 254 257 261 265 268 268 271 276 279 281 283 288 291 294 298
269 265 263 261 257 252 251 248 247 247 246 243 238 237 237 236 236 237 237 238 239 240 243 242 241 244 245 249 253 256 260 264 265 268 271 276 279 280 282 287 291 294 298
271 268 263 260 257 253 251 248 248 247 246 245 241 239 237 237 238 236 237 239 240 240 241 242 242 243 245 247 252 255 258 260 263 266 271 273 276 279 282 286 291 294 297
269 267 263 258 254 254 254 252 251 250 250 248 244 240 238 238 238 237 238 241 240 239 239 240 241 243 245 248 250 253 257 259 263 266 269 272 275 278 281 286 291 294 298
269 266 262 260 256 254 254 254 253 252 250 248 245 242 241 240 237 236 238 239 239 238 239 240 242 243 246 249 251 253 255 256 260 264 267 271 274 276 281 286 290 293 299
268 264 261 261 257 254 254 256 255 254 252 249 246 241 239 237 235 236 236 237 238 237 238 240 242 244 247 249 251 254 254 256 259 262 266 269 272 276 282 286 290 294 297
266 262 259 258 257 255 253 253 251 250 249 247 244 241 238 235 235 235 235 235 236 236 237 239 241 243 246 249 251 252 253 256 258 261 264 268 272 278 283 286 289 293 297
266 262 260 257 256 255 253 252 251 248 246 245 243 241 239 236 235 235 235 236 235 236 237 239 241 242 244 246 247 249 251 254 256 259 264 268 271 276 281 285 288 292 297
266 262 259 257 256 254 251 251 250 249 247 245 240 239 238 236 236 236 236 236 237 239 238 237 237 239 241 243 244 247 250 253 255 258 263 266 270 274 279 283 288 292 296
267 262 259 257 256 253 250 249 249 249 248 246 242 239 237 238 238 237 237 236 236 238 236 234 235 238 239 240 241 246 249 251 253 257 261 263 267 272 276 282 287 291 296
267 263 259 257 255 252 248 247 246 246 246 245 242 239 237 238 238 237 237 237 235 234 234 232 233 237 238 238 240 246 249 250 252 255 257 261 266 269 275 281 285 289 295
266 263 259 255 252 250 248 246 245 245 245 244 242 240 238 237 236 237 237 236 233 231 231 230 232 235 236 238 241 244 245 248 251 250 253 258 261 266 274 279 284 290 296
267 264 259 254 251 249 247 245 244 244 244 242 239 237 236 236 236 237 236 234 231 229 228 229 230 232 234 237 239 240 242 245 245 245 250 255 261 268 273 276 282 290 295
265 263 258 255 251 248 245 242 242 241 241 240 238 235 234 234 235 235 232 230 230 228 226 227 228 228 229 232 235 235 236 237 239 243 249 253 259 265 268 271 279 287 293
263 260 256 254 250 246 242 240 240 239 238 236 235 234 233 234 233 232 229 229 228 225 224 225 224 224 226 228 229 231 233 234 237 241 244 246 253 260 264 269 276 284 292
260 256 254 251 247 243 240 238 237 237 235 234 234 233 231 231 230 227 225 225 224 222 221 221 220 220 221 223 225 227 228 229 233 235 238 243 251 257 261 267 271 280 291
Height
5544 5547 5549 5550 5552 5555 5557 5560 5564 5568 5573 5578 5584 5590 5597 5604 5612 5619 5626 5632 5638 5645 5652 5657 5663 5667 5671 5675 5678 5680 5683 5684 5686 5686 5686 5685 5684 5682 5680 5678 5674 5671 5666
5538 5540 5541 5543 5545 5546 5549 5551 5555 5559 5564 5569 5574 5580 5587 5595 5602 5608 5615 5622 5628 5635 5642 5647 5652 5657 5662 5666 5668 5671 5673 5675 5676 5677 5677 5676 5675 5673 5671 5669 5666 5662 5658
5531 5532 5534 5535 5537 5539 5541 5543 5546 5550 5555 5560 5565 5572 5579 5586 5592 5599 5606 5613 5619 5626 5632 5637 5643 5648 5652 5656 5659 5662 5664 5666 5666 5667 5668 5667 5666 5664 5662 5660 5657 5653 5649
5524 5525 5527 5528 5530 5532 5533 5536 5539 5543 5548 5553 5557 5563 5570 5577 5584 5590 5597 5604 5610 5616 5622 5628 5633 5639 5643 5647 5650 5653 5655 5656 5658 5658 5658 5658 5657 5655 5653 5651 5648 5645 5641
5518 5519 5520 5521 5522 5524 5527 5529 5533 5537 5541 5545 5550 5555 5561 5568 5574 5581 5588 5594 5600 5607 5612 5618 5624 5629 5634 5637 5641 5644 5645 5647 5648 5649 5649 5649 5648 5646 5645 5642 5639 5636 5632
5513 5513 5513 5514 5516 5518 5521 5523 5526 5530 5534 5537 5542 5547 5554 5560 5566 5572 5578 5585 5591 5597 5603 5609 5614 5620 5624 5628 5632 5634 5636 5638 5639 5640 5640 5640 5639 5638 5636 5633 5631 5628 5624
5508 5507 5507 5508 5509 5512 5514 5516 5519 5523 5527 5531 5535 5540 5546 5552 5557 5563 5569 5576 5582 5588 5594 5600 5606 5611 5615 5618 5622 5625 5627 5628 5630 5631 5631 5631 5630 5629 5627 5625 5622 5618 5615
5502 5502 5502 5502 5503 5505 5507 5510 5513 5517 5520 5523 5528 5533 5539 5544 5550 5555 5560 5567 5573 5580 5586 5592 5597 5602 5605 5609 5612 5615 5618 5620 5621 5621 5622 5622 5620 5619 5617 5616 5613 5609 5606
5497 5497 5497 5497 5498 5500 5502 5504 5507 5510 5513 5516 5521 5526 5531 5536 5541 5547 5552 5558 5564 5571 5577 5583 5587 5592 5596 5599 5603 5606 5609 5610 5611 5612 5612 5612 5611 5610 5609 5607 5604 5601 5598
5491 5491 5491 5492 5493 5494 5496 5498 5501 5503 5506 5510 5514 5519 5524 5529 5534 5539 5545 5550 5557 5562 5568 5573 5578 5583 5587 5590 5593 5596 5599 5601 5602 5603 5603 5603 5602 5601 5600 5598 5596 5593 5590
5485 5485 5486 5486 5487 5489 5491 5492 5495 5497 5500 5503 5507 5512 5517 5522 5526 5531 5537 5542 5548 5553 5558 5564 5569 5573 5577 5581 5584 5587 5590 5592 5593 5593 5594 5594 5593 5593 5592 5590 5588 5585 5583
5479 5479 5480 5481 5481 5483 5484 5486 5488 5491 5494 5497 5500 5505 5509 5514 5519 5523 5528 5534 5539 5544 5549 5555 5559 5564 5568 5571 5575 5578 5580 5582 5583 5584 5585 5585 5585 5584 5583 5582 5580 5578 5575
5473 5473 5473 5474 5475 5476 5478 5480 5482 5484 5487 5490 5494 5498 5502 5506 5510 5515 5520 5525 5530 5535 5541 5545 5550 5554 5558 5562 5565 5568 5570 5573 5574 5576 5576 5577 5577 5576 5575 5574 5572 5570 5568
5467 5467 5467 5468 5469 5470 5471 5473 5475 5477 5480 5483 5486 5490 5494 5498 5502 5506 5511 5516 5521 5526 5531 5536 5540 5544 5549 5553 5556 5559 5561 5564 5566 5567 5568 5568 5568 5568 5567 5566 5564 5563 5560
5459 5460 5460 5461 5462 5464 5465 5466 5468 5470 5472 5475 5478 5482 5486 5490 5494 5498 5502 5507 5512 5517 5522 5527 5531 5536 5540 5544 5547 5550 5553 5555 5557 5558 5559 5560 5560 5560 5559 5558 5556 5555 5552
5452 5452 5453 5454 5455 5456 5458 5459 5461 5463 5465 5467 5470 5474 5478 5482 5486 5490 5494 5499 5503 5508 5513 5518 5523 5527 5531 5535 5538 5541 5544 5547 5549 5550 5551 5552 5552 5552 5551 5550 5549 5547 5545
5444 5444 5445 5446 5447 5448 5450 5452 5454 5456 5457 5459 5462 5466 5469 5474 5478 5482 5486 5490 5495 5500 5505 5510 5515 5519 5523 5526 5530 5533 5536 5539 5540 5542 5543 5544 5544 5544 5544 5543 5541 5539 5537
5435 5436 5437 5437 5439 5440 5442 5443 5445 5448 5450 5452 5455 5458 5462 5466 5470 5474 5479 5483 5488 5493 5497 5502 5506 5511 5514 5518 5522 5525 5528 5530 5532 5533 5535 5536 5536 5537 5536 5535 5534 5532 5530
5427 5427 5428 5429 5431 5432 5434 5436 5438 5440 5443 5446 5448 5451 5455 5459 5463 5467 5471 5476 5481 5485 5489 5494 5498 5503 5507 5510 5514 5517 5519 5522 5524 5526 5527 5528 5529 5529 5529 5528 5527 5526 5524
5418 5419 5420 5421 5422 5424 5426 5428 5430 5433 5436 5438 5441 5444 5447 5451 5456 5460 5463 5468 5473 5477 5482 5486 5490 5495 5499 5503 5506 5509 5512 5514 5516 5518 5520 5521 5522 5522 5522 5522 5521 5520 5518
5410 5410 5411 5412 5414 5416 5418 5420 5423 5425 5428 5431 5434 5437 5440 5444 5449 5452 5456 5460 5465 5469 5474 5479 5483 5487 5491 5495 5499 5502 5505 5507 5510 5512 5513 5514 5516 5516 5516 5516 5515 5514 5513
5401 5401 5402 5404 5405 5407 5410 5412 5415 5418 5420 5423 5426 5429 5432 5436 5441 5444 5448 5452 5457 5461 5466 5471 5476 5480 5484 5488 5491 5495 5498 5501 5503 5505 5506 5508 5509 5510 5511 5510 5510 5509 5508
5392 5393 5394 5395 5397 5399 5401 5404 5407 5409 5412 5415 5419 5422 5425 5429 5433 5437 5441 5445 5449 5453 5458 5463 5468 5473 5477 5481 5485 5488 5492 5494 5497 5499 5501 5502 5504 5505 5505 5505 5505 5504 5503
5383 5384 5385 5386 5388 5390 5393 5396 5399 5402 5404 5408 5411 5415 5418 5422 5426 5429 5433 5437 5442 5446 5451 5456 5461 5466 5470 5475 5479 5482 5485 5488 5491 5493 5495 5497 5498 5499 5500 5500 5500 5500 5499
5374 5375 5376 5377 5379 5382 5385 5388 5391 5394 5397 5401 5404 5408 5411 5415 5419 5423 5427 5431 5435 5440 5445 5450 5455 5460 5464 5469 5473 5476 5480 5483 5485 5487 5489 5491 5493 5494 5495 5495 5496 5495 5495
5365 5366 5367 5369 5371 5374 5377 5380 5383 5387 5390 5394 5398 5401 5405 5409 5413 5417 5420 5425 5429 5434 5439 5444 5449 5454 5459 5463 5467 5471 5474 5477 5480 5482 5484 5486 5488 5489 5490 5491 5491 5491 5491